sat.trackr.live / text

‹ back to catalog

STARLINK-31324

NORAD 58976 · 2024-031M

PAYLOAD ACTIVE UNKNOWN

§ Identity

Operator
Country
US
Launch date
2024-02-15
Launch site
AFWTR
Launch vehicle
Mass (kg)
RCS (m²)

Purposes: comms

External: N2YO · Heavens-Above · Gunter

§ Orbital elements

Epoch: 2026-09-19T22:51:59.687424Z

Period
93.85 min
Inclination
53.1580°
Eccentricity
0.0001266
Mean motion
15.34415086 rev/d
Perigee alt
461.8 km
Apogee alt
463.5 km
Semi-major
6,840.8 km
B*
9.3379e-5
RAAN
112.3829°
Arg perigee
77.0034°
Mean anomaly
283.1110°
Rev number
14,628

§ Raw data

STARLINK-313241 58976U 24031M   26262.95277416  .00002781  00000+0  93379-4 0  99962 58976  53.1580 112.3829 0001266  77.0034 283.1110 15.34415086146285

JSON: /api/v1/satellites/58976 · /tle

For live sub-satellite position, see the globe view (requires WebGL).

§ Visibility from observer

Set your observer location to see the next 7 days of passes ≥ 10°. The values pass through the URL so the page stays shareable.

No JS? Fill the form by hand. The geolocation button needs JavaScript.